Broomfield, CO

1:04 AM MDT on April 28, 2017 (GMT -0600)
Jeffco

Weather History for KBJC - January, 2014

Change the Weather History Date:

Friday, January 10, 2014

  Actual Average Record
Temperature  
Mean Temperature 36 °F -  
Max Temperature 41 °F 44 °F 71 °F (1990)
Min Temperature 30 °F 23 °F -2 °F (1993)
Degree Days  
Heating Degree Days 30    
Moisture  
Dew Point 10 °F    
Average Humidity 38    
Maximum Humidity 48    
Minimum Humidity 29    
Precipitation  
Precipitation 0.00 in - - ()
Sea Level Pressure  
Sea Level Pressure 29.72 in    
Wind  
Wind Speed 19 mph (WNW)    
Max Wind Speed 39 mph    
Max Gust Speed 52 mph    
Visibility 11 miles    
Events      
Averages and records for this station are not official NWS values.
T = Trace of Precipitation, MM = Missing Value Source: NWS Daily Summary

Daily Weather History Graph

Daily Weather History Graph

Search for Another Location

Airport or City:

Trip Planner

Search our weather history database for the weather conditions in past years. The results will help you decide how hot, cold, wet, or windy it might be!

Date:

Astronomy

Jan. 10, 2014 Rise Set
Actual Time 7:21 AM MST 4:54 PM MST
Civil Twilight 6:51 AM MST 5:24 PM MST
Nautical Twilight 6:18 AM MST 5:58 PM MST
Astronomical Twilight 5:45 AM MST 6:30 PM MST
Moon 1:00 PM MST (1/10) 2:31 AM MST (1/10)
Length of Visible Light 10h 33m
Length of Day
9h 33m
Waxing Gibbous, 75% of the Moon is Illuminated
Jan 10
Waxing Gibbous
Jan 15
Full
Jan 23
Last Quarter
Jan 30
New
Feb 6
First Quarter

Hourly Weather History & Observations

Time (MST) Temp. Windchill Dew Point Humidity Pressure Visibility Wind Dir Wind Speed Gust Speed Precip Events Conditions
12:11 AM 32.0 °F 18.1 °F 14.0 °F 48% 29.70 in 10.0 mi West 27.6 mph 44.9 mph N/A   Mostly Cloudy
12:32 AM 32.0 °F 27.5 °F 12.2 °F 44% 29.70 in 10.0 mi WNW 4.6 mph 25.3 mph N/A   Mostly Cloudy
12:55 AM 32.0 °F 18.4 °F 10.4 °F 41% 29.70 in 10.0 mi WNW 26.5 mph 35.7 mph N/A   Scattered Clouds
1:12 AM 32.0 °F 20.5 °F 8.6 °F 38% 29.70 in 10.0 mi West 18.4 mph 25.3 mph N/A   Scattered Clouds
1:34 AM 30.2 °F 20.2 °F 8.6 °F 40% 29.71 in 10.0 mi West 12.7 mph 25.3 mph N/A   Clear
1:54 AM 32.0 °F 19.8 °F 6.8 °F 35% 29.69 in 10.0 mi West 20.7 mph 24.2 mph N/A   Clear
2:14 AM 32.0 °F 20.8 °F 5.0 °F 32% 29.69 in 10.0 mi WNW 17.3 mph 32.2 mph N/A   Clear
2:34 AM 32.0 °F 20.5 °F 6.8 °F 35% 29.69 in 10.0 mi WNW 18.4 mph 21.9 mph N/A   Clear
2:54 AM 32.0 °F 23.6 °F 6.8 °F 35% 29.70 in 10.0 mi WNW 10.4 mph 31.1 mph N/A   Clear
3:15 AM 30.2 °F 20.8 °F 6.8 °F 37% 29.69 in 10.0 mi West 11.5 mph 21.9 mph N/A   Clear
3:35 AM 32.0 °F 19.2 °F 5.0 °F 32% 29.68 in 10.0 mi West 23.0 mph 26.5 mph N/A   Clear
3:55 AM 32.0 °F 16.7 °F 6.8 °F 35% 29.68 in 10.0 mi West 34.5 mph 44.9 mph N/A   Clear
4:15 AM 32.0 °F 17.9 °F 5.0 °F 32% 29.68 in 10.0 mi West 28.8 mph 39.1 mph N/A   Clear
4:33 AM 32.0 °F 18.1 °F 5.0 °F 32% 29.68 in 10.0 mi West 27.6 mph 46.0 mph N/A   Clear
4:55 AM 32.0 °F 19.8 °F 5.0 °F 32% 29.68 in 10.0 mi WNW 20.7 mph 35.7 mph N/A   Clear
5:45 AM 30.2 °F 15.2 °F 3.2 °F 32% 29.69 in 20.0 mi West 29.9 mph 46.0 mph N/A   Scattered Clouds
6:50 AM 30.2 °F 15.2 °F 3.2 °F 32% 29.65 in 40.0 mi WNW 29.9 mph 46.0 mph N/A   Mostly Cloudy
7:49 AM 32.0 °F 19.5 °F 3.2 °F 30% 29.65 in 60.0 mi West 21.9 mph 25.3 mph N/A   Mostly Cloudy
8:52 AM 33.8 °F 20.3 °F 8.6 °F 35% 29.67 in 60.0 mi West 28.8 mph 40.3 mph N/A   Mostly Cloudy
9:53 AM 35.6 °F 24.2 °F 6.8 °F 30% 29.66 in 60.0 mi WNW 21.9 mph 40.3 mph N/A   Mostly Cloudy
10:55 AM 35.6 °F 21.0 °F 6.8 °F 30% 29.66 in 60.0 mi West 39.1 mph 51.8 mph N/A   Mostly Cloudy
11:48 AM 39.2 °F 28.0 °F 10.4 °F 31% 29.67 in 60.0 mi West 26.5 mph 40.3 mph N/A   Mostly Cloudy
12:48 PM 41.0 °F 29.1 °F 10.4 °F 29% 29.63 in 60.0 mi West 34.5 mph 48.3 mph N/A   Mostly Cloudy
1:56 PM 41.0 °F 29.5 °F 12.2 °F 31% 29.64 in 60.0 mi West 32.2 mph 48.3 mph N/A   Mostly Cloudy
3:53 PM 35.6 °F 25.5 °F 15.8 °F 44% 29.74 in 75.0 mi West 17.3 mph 23.0 mph N/A   Mostly Cloudy
4:45 PM 33.8 °F 27.0 °F 15.8 °F 48% 29.74 in 30.0 mi WNW 8.1 mph 17.3 mph N/A   Scattered Clouds
5:45 PM 35.6 °F 28.0 °F 10.4 °F 35% 29.76 in 15.0 mi NW 10.4 mph - N/A   Scattered Clouds
6:45 PM 35.6 °F - 10.4 °F 35% 29.78 in 30.0 mi Calm Calm - N/A   Partly Cloudy
7:45 PM 33.8 °F - 12.2 °F 41% 29.79 in 30.0 mi Calm Calm - N/A   Scattered Clouds
8:47 PM 33.8 °F - 12.2 °F 41% 29.81 in 30.0 mi Calm Calm - N/A   Scattered Clouds
9:47 PM 33.8 °F 27.7 °F 12.2 °F 41% 29.81 in 30.0 mi SE 6.9 mph - N/A   Scattered Clouds
10:15 PM 32.0 °F - 14.0 °F 48% 29.83 in 10.0 mi Calm Calm - N/A   Clear
10:34 PM 32.0 °F 28.7 °F 14.0 °F 48% 29.84 in 10.0 mi East 3.5 mph - N/A   Clear
10:54 PM 32.0 °F 27.5 °F 14.0 °F 48% 29.84 in 10.0 mi ENE 4.6 mph - N/A   Clear
11:12 PM 32.0 °F - 14.0 °F 48% 29.85 in 10.0 mi Calm Calm - N/A   Clear
11:33 PM 32.0 °F 28.7 °F 14.0 °F 48% 29.86 in 10.0 mi West 3.5 mph - N/A   Clear
11:55 PM 33.8 °F 24.8 °F 15.8 °F 48% 29.86 in 10.0 mi West 12.7 mph 19.6 mph N/A   Clear